Regional Weather Roundup
Issued by NWS Portland, ME

Home | Current Version | Previous Version | Text Only | Print | Product List | Glossary On
Versions: 1 2 3 4 5 6 7 8 9 10 11 12 13 14 15 16 17 18 19 20 21 22 23 24 25 26 27 28 29 30 31 32 33 34 35 36 37 38 39 40 41 42 43 44 45 46 47 48 49 50
000
ASUS41 KGYX 041710
RWRGYX
WEATHER ROUNDUP FOR MAINE AND NEW HAMPSHIRE
NATIONAL WEATHER SERVICE GRAY ME
100 PM EDT WED MAY 04 2016

MEZ002-005-006-010-012-015-018-020-021-024-026-027-029-041800-
MAINE

CITY           SKY/WX    TMP DP  RH WIND       PRES   REMARKS
PORTLAND       LGT RAIN  46  41  82 E7        29.92F
SANFORD        CLOUDY    48  39  71 E8        29.91F
BAR HARBOR     SUNNY     48  38  68 E10       29.93S
WISCASSET      CLOUDY    50  42  74 S7        29.94S
ROCKLAND       CLOUDY    44  39  82 SE17      29.94S
FRYEBURG       LGT RAIN  49  43  80 CALM      29.91S
LEWISTONAUBURN CLOUDY    52  37  58 E5        29.91F
AUGUSTA        CLOUDY    53  39  59 VRB5      29.92S
WATERVILLE     CLOUDY    52  37  56 NE8       29.89
BANGOR         CLOUDY    56  40  55 NE6       29.93R
GREENVILLE       N/A     48  36  63 CALM      29.88S
MILLINOCKET    CLOUDY    51  38  60 E14       29.95S
HOULTON        CLOUDY    49  36  61 E7        29.95F
PRESQUE ISLE   CLOUDY    50  35  56 S5        29.95S
FRENCHVILLE    CLOUDY    49  33  54 SE6       29.94S
CARIBOU        CLOUDY    50  34  54 S7        29.94S
$$

NHZ002-005-008-009-011-012-014-041800-
NEW HAMPSHIRE

CITY           SKY/WX    TMP DP  RH WIND       PRES   REMARKS
PORTSMOUTH     CLOUDY    49  40  72 E10       29.89F
ROCHESTER      CLOUDY    47  39  74 E8        29.89F
NASHUA         CLOUDY    50  41  71 E13       29.88F
MANCHESTER     CLOUDY    49  38  65 E12       29.87F
CONCORD        CLOUDY    48  43  82 E5        29.88F HAZE
LACONIA        CLOUDY    46  41  81 E6        29.89F
PLYMOUTH       LGT RAIN  48  44  86 CALM      29.89S
BERLIN         CLOUDY    48  39  71 E5        29.89S
WHITEFIELD     LGT RAIN  48  40  73 S10       29.87S
JAFFREY        CLOUDY    45  42  89 CALM      29.86F
KEENE          CLOUDY    46  43  87 CALM      29.86F
LEBANON        LGT RAIN  50  42  74 VRB6      29.86F
MT WASHINGTON  LGTSLEET  36  36 100 S12         N/A  VSB 1/8
$$

VTZ005-007-008-041800-
VERMONT

CITY           SKY/WX    TMP DP  RH WIND       PRES   REMARKS
ST JOHNSBURY     N/A     51  40  65 MISG      29.85S
MONTPELIER     LGT RAIN  49  39  68 SE9       29.89S
BURLINGTON     CLOUDY    56  42  59 SE12      29.81F
$$

MAZ007-012-024-CTZ003-RIZ002-NYZ038-NYZ072-041800-
SOUTHERN NEW ENGLAND AND NY

CITY           SKY/WX    TMP DP  RH WIND       PRES   REMARKS
BOSTON         CLOUDY    48  42  80 E13       29.90S
WORCESTER      CLOUDY    46  39  76 E10       29.84F
NANTUCKET      CLOUDY    48  43  82 NE21G28   29.82F
PROVIDENCE     CLOUDY    52  41  66 NE14      29.85F
HARTFORD       CLOUDY    51  42  71 E9        29.82F
ALBANY         LGT RAIN  50  46  86 S5        29.82S
NEW YORK CITY  CLOUDY    51  47  86 NE17      29.77F
$$

ANZ081-ANZ082-ANZ150-NHZ014-MEZ023>029-041800-
COASTAL MARINE OBSERVATIONS

STATION/POSITION TIME  TEMP    WIND        PRES    WAVE
                       AIR SEA DIR/SP/G            HT/PER
                 (UTC) (F)     (DEG/KT/KT) (MB)    (FT/S)
MOUNT DESERT ROC 1700   41      50/ 22/ 23 1013.5F
MATINICUS ROCK   1700   41      70/ 21/ 23 1012.9F
ISLE OF SHOALS   1700   45      70/ 11/ 12 1012.5F
CASHES LEDGE BUO 1650   42 45   70/ 14/ 17 1012.6S   4/ 9
GEORGES BANK BUO 1650   47 46              1009.7R   6/ 8
$$

.............KEY..............
   WCI - WIND CHILL
   TC  - TEMPERATURE IN CELSIUS
   VSB - VISIBILITY IN MILES
   HX  - HEAT INDEX
   FAIR- INDICATES FEW OR NO CLOUDS BELOW 12,000 FT, WITH NO
         SIGNIFICANT WEATHER AND/OR OBSTRUCTIONS TO VISIBILITY.





USA.gov is the U.S. government's official web portal to all federal, state and local government web resources and services.